Location: Corralito
(10.5000°N, 67.1333°W)
Time: 07:44:56
(UTC+00:00)

Delta 7925 Rocket - Pass Details

Date: 18 April 2024
Orbit: 645 x 1644 km, 26.3° (Epoch: 25 May)

Event Time Altitude Azimuth Distance (km) Brightness Sun altitude
Rises 23:27:12 0° 294° (WNW) 2,985 8.5 -12.2°
Reaches altitude 10° 23:29:25 10° 293° (WNW) 2,127 7.3 -12.8°
Maximum altitude 23:34:20 81° 206° (SSW) 781 3.5 -13.9°
Enters shadow 23:38:25 20° 121° (ESE) 1,866 4.9 -14.9°
